Location: Herm
(49.4830°N, 2.4500°W)
Time: 22:47:43
(UTC+00:00)

OTV 5 (USA 277) - Pass Details

Date: 30 October 2019
Orbit: 310 x 324 km, 54.5° (Epoch: 17 October)

Event Time Altitude Azimuth Distance (km) Brightness Sun altitude
Rises 19:04:28 0° 239° (WSW) 2,058 ? -22.0°
Reaches altitude 10° 19:06:25 10° 238° (WSW) 1,231 ? -22.3°
Enters shadow 19:07:33 22° 237° (WSW) 769 ? -22.5°
